Time,TemperatureF,DewpointF,PressureIn,WindDirection,WindDirectionDegrees,WindSpeedMPH,WindSpeedGustMPH,Humidity,HourlyPrecipIn,Conditions,Clouds,dailyrainin,SolarRadiationWatts/m^2,SoftwareType,DateUTC
2013-10-02 03:52:00,35.0,33.0,-100.00,North,3,0.0,1.0,93,0.00,,,0.00,0.000000,,2013-10-02 08:52:00,
2013-10-02 04:02:00,35.0,33.0,-100.00,North,3,0.0,1.0,93,0.00,,,0.00,0.000000,,2013-10-02 09:02:00,
2013-10-02 04:11:00,35.0,33.0,-100.00,North,3,0.0,1.0,93,0.00,,,0.00,0.000000,,2013-10-02 09:11:00,
2013-10-02 04:43:00,33.0,31.0,-100.00,North,353,0.0,1.0,93,0.00,,,0.00,0.000000,,2013-10-02 09:43:00,
2013-10-02 04:54:00,33.0,31.0,-100.00,North,353,0.0,1.0,93,0.00,,,0.00,0.000000,,2013-10-02 09:54:00,
2013-10-02 05:03:00,33.0,31.0,-100.00,North,353,0.0,1.0,93,0.00,,,0.00,0.000000,,2013-10-02 10:03:00,
2013-10-02 05:12:00,33.0,31.0,-100.00,North,353,0.0,1.0,93,0.00,,,0.00,0.000000,,2013-10-02 10:12:00,
2013-10-02 05:42:00,32.0,30.0,-100.00,SSW,212,0.0,2.0,93,0.00,,,-99.99,0.000000,,2013-10-02 10:42:00,
2013-10-02 05:53:00,32.0,30.0,-100.00,SSW,212,0.0,2.0,93,0.00,,,-99.99,0.000000,,2013-10-02 10:53:00,
2013-10-02 06:03:00,32.0,30.0,-100.00,SSW,212,0.0,2.0,93,0.00,,,-99.99,0.000000,,2013-10-02 11:03:00,
2013-10-02 06:12:00,32.0,30.0,-100.00,SSW,212,0.0,2.0,93,0.00,,,-99.99,0.000000,,2013-10-02 11:12:00,
2013-10-02 06:43:00,31.0,29.0,-100.00,NNW,346,0.0,2.0,94,0.00,,,0.00,0.000000,,2013-10-02 11:43:00,
2013-10-02 06:52:00,31.0,29.0,-100.00,NNW,346,0.0,2.0,94,0.00,,,0.00,0.000000,,2013-10-02 11:52:00,
2013-10-02 07:02:00,31.0,29.0,-100.00,NNW,346,0.0,2.0,94,0.00,,,0.00,0.000000,,2013-10-02 12:02:00,
2013-10-02 07:42:00,31.0,29.0,-100.00,North,354,0.0,1.0,94,0.00,,,0.00,1.000000,,2013-10-02 12:42:00,
2013-10-02 07:52:00,31.0,29.0,-100.00,North,354,0.0,1.0,94,0.00,,,0.00,1.000000,,2013-10-02 12:52:00,
2013-10-02 08:02:00,31.0,29.0,-100.00,North,354,0.0,1.0,94,0.00,,,0.00,1.000000,,2013-10-02 13:02:00,
2013-10-02 08:11:00,31.0,29.0,-100.00,North,354,0.0,1.0,94,0.00,,,0.00,1.000000,,2013-10-02 13:11:00,
2013-10-02 08:42:00,36.0,34.0,-100.00,NE,55,0.0,1.0,94,0.00,,,0.00,58.000000,,2013-10-02 13:42:00,
2013-10-02 08:52:00,36.0,34.0,-100.00,NE,55,0.0,1.0,94,0.00,,,0.00,58.000000,,2013-10-02 13:52:00,
2013-10-02 09:02:00,36.0,34.0,-100.00,NE,55,0.0,1.0,94,0.00,,,0.00,58.000000,,2013-10-02 14:02:00,
2013-10-02 09:11:00,36.0,34.0,-100.00,NE,55,0.0,1.0,94,0.00,,,0.00,58.000000,,2013-10-02 14:11:00,
2013-10-02 09:42:00,50.0,42.0,-100.00,ENE,58,0.0,2.0,73,0.00,,,0.00,231.000000,,2013-10-02 14:42:00,
2013-10-02 09:52:00,50.0,42.0,-100.00,ENE,58,0.0,2.0,73,0.00,,,0.00,231.000000,,2013-10-02 14:52:00,
2013-10-02 10:01:00,50.0,42.0,-100.00,ENE,58,0.0,2.0,73,0.00,,,0.00,231.000000,,2013-10-02 15:01:00,
2013-10-02 10:11:00,50.0,42.0,-100.00,ENE,58,0.0,2.0,73,0.00,,,0.00,231.000000,,2013-10-02 15:11:00,
2013-10-02 10:43:00,59.0,43.0,-100.00,ESE,117,1.0,3.0,55,0.00,,,0.00,384.000000,,2013-10-02 15:43:00,
2013-10-02 10:54:00,59.0,43.0,-100.00,ESE,117,1.0,3.0,55,0.00,,,0.00,384.000000,,2013-10-02 15:54:00,
2013-10-02 11:03:00,59.0,43.0,-100.00,ESE,117,1.0,3.0,55,0.00,,,0.00,384.000000,,2013-10-02 16:03:00,
2013-10-02 11:12:00,59.0,43.0,-100.00,ESE,117,1.0,3.0,55,0.00,,,0.00,384.000000,,2013-10-02 16:12:00,
2013-10-02 11:43:00,70.0,43.0,-100.00,ESE,118,3.0,7.0,38,0.00,,,0.00,519.000000,,2013-10-02 16:43:00,
2013-10-02 11:52:00,70.0,43.0,-100.00,ESE,118,3.0,7.0,38,0.00,,,0.00,519.000000,,2013-10-02 16:52:00,
2013-10-02 12:02:00,70.0,43.0,-100.00,ESE,118,3.0,7.0,38,0.00,,,0.00,519.000000,,2013-10-02 17:02:00,
2013-10-02 12:12:00,70.0,43.0,-100.00,ESE,118,3.0,7.0,38,0.00,,,0.00,519.000000,,2013-10-02 17:12:00,
2013-10-02 12:42:00,73.0,33.0,-100.00,SSE,157,5.0,11.0,23,0.00,,,0.00,603.000000,,2013-10-02 17:42:00,
2013-10-02 12:52:00,73.0,33.0,-100.00,SSE,157,5.0,11.0,23,0.00,,,0.00,603.000000,,2013-10-02 17:52:00,
2013-10-02 13:02:00,73.0,33.0,-100.00,SSE,157,5.0,11.0,23,0.00,,,0.00,603.000000,,2013-10-02 18:02:00,
2013-10-02 13:12:00,73.0,33.0,-100.00,SSE,157,5.0,11.0,23,0.00,,,0.00,603.000000,,2013-10-02 18:12:00,
2013-10-02 13:42:00,75.0,34.0,-100.00,SSE,163,5.0,10.0,22,0.00,,,0.00,574.000000,,2013-10-02 18:42:00,
2013-10-02 13:52:00,75.0,34.0,-100.00,SSE,163,5.0,10.0,22,0.00,,,0.00,574.000000,,2013-10-02 18:52:00,
2013-10-02 14:02:00,75.0,34.0,-100.00,SSE,163,5.0,10.0,22,0.00,,,0.00,574.000000,,2013-10-02 19:02:00,
2013-10-02 14:11:00,75.0,34.0,-100.00,SSE,163,5.0,10.0,22,0.00,,,0.00,574.000000,,2013-10-02 19:11:00,
2013-10-02 14:42:00,76.0,32.0,-100.00,SSE,153,5.0,11.0,20,0.00,,,0.00,620.000000,,2013-10-02 19:42:00,
2013-10-02 14:52:00,76.0,32.0,-100.00,SSE,153,5.0,11.0,20,0.00,,,0.00,620.000000,,2013-10-02 19:52:00,
2013-10-02 15:02:00,76.0,32.0,-100.00,SSE,153,5.0,11.0,20,0.00,,,0.00,620.000000,,2013-10-02 20:02:00,
2013-10-02 15:11:00,76.0,32.0,-100.00,SSE,153,5.0,11.0,20,0.00,,,0.00,620.000000,,2013-10-02 20:11:00,
2013-10-02 15:42:00,75.0,31.0,-100.00,ESE,122,5.0,14.0,20,0.00,,,0.00,514.000000,,2013-10-02 20:42:00,
2013-10-02 15:52:00,75.0,31.0,-100.00,ESE,122,5.0,14.0,20,0.00,,,0.00,514.000000,,2013-10-02 20:52:00,
2013-10-02 16:02:00,75.0,31.0,-100.00,ESE,122,5.0,14.0,20,0.00,,,0.00,514.000000,,2013-10-02 21:02:00,
2013-10-02 16:11:00,75.0,31.0,-100.00,ESE,122,5.0,14.0,20,0.00,,,0.00,514.000000,,2013-10-02 21:11:00,
2013-10-02 16:44:00,72.0,34.0,-100.00,ESE,120,6.0,17.0,25,0.00,,,0.00,263.000000,,2013-10-02 21:44:00,
2013-10-02 16:55:00,72.0,34.0,-100.00,ESE,120,6.0,17.0,25,0.00,,,0.00,263.000000,,2013-10-02 21:55:00,
2013-10-02 17:04:00,72.0,34.0,-100.00,ESE,120,6.0,17.0,25,0.00,,,0.00,263.000000,,2013-10-02 22:04:00,
2013-10-02 17:13:00,72.0,34.0,-100.00,ESE,120,6.0,17.0,25,0.00,,,0.00,263.000000,,2013-10-02 22:13:00,
2013-10-02 17:44:00,70.0,38.0,-100.00,NNW,337,4.0,10.0,31,0.00,,,0.00,48.000000,,2013-10-02 22:44:00,
2013-10-02 17:54:00,70.0,38.0,-100.00,NNW,337,4.0,10.0,31,0.00,,,0.00,48.000000,,2013-10-02 22:54:00,
2013-10-02 18:04:00,70.0,38.0,-100.00,NNW,337,4.0,10.0,31,0.00,,,0.00,48.000000,,2013-10-02 23:04:00,
2013-10-02 18:12:00,70.0,38.0,-100.00,NNW,337,4.0,10.0,31,0.00,,,0.00,48.000000,,2013-10-02 23:12:00,
2013-10-02 18:42:00,58.0,49.0,-100.00,North,4,2.0,11.0,73,0.04,,,0.04,6.000000,,2013-10-02 23:42:00,
2013-10-02 18:52:00,58.0,49.0,-100.00,North,4,2.0,11.0,73,0.04,,,0.04,6.000000,,2013-10-02 23:52:00,
2013-10-02 19:02:00,58.0,49.0,-100.00,North,4,2.0,11.0,73,0.04,,,0.04,6.000000,,2013-10-03 00:02:00,
2013-10-02 19:12:00,58.0,49.0,-100.00,North,4,2.0,11.0,73,0.04,,,0.04,6.000000,,2013-10-03 00:12:00,
2013-10-02 19:42:00,54.0,50.0,-100.00,NE,47,3.0,13.0,87,0.09,,,0.13,0.000000,,2013-10-03 00:42:00,
2013-10-02 19:52:00,54.0,50.0,-100.00,NE,47,3.0,13.0,87,0.09,,,0.13,0.000000,,2013-10-03 00:52:00,
2013-10-02 20:02:00,54.0,50.0,-100.00,NE,47,3.0,13.0,87,0.09,,,0.13,0.000000,,2013-10-03 01:02:00,
2013-10-02 20:11:00,54.0,50.0,-100.00,NE,47,3.0,13.0,87,0.09,,,0.13,0.000000,,2013-10-03 01:11:00,
2013-10-02 20:42:00,54.0,50.0,-100.00,ENE,67,2.0,9.0,87,0.01,,,0.14,0.000000,,2013-10-03 01:42:00,
2013-10-02 20:52:00,54.0,50.0,-100.00,ENE,67,2.0,9.0,87,0.01,,,0.14,0.000000,,2013-10-03 01:52:00,
2013-10-02 21:02:00,54.0,50.0,-100.00,ENE,67,2.0,9.0,87,0.01,,,0.14,0.000000,,2013-10-03 02:02:00,
2013-10-02 21:11:00,54.0,50.0,-100.00,ENE,67,2.0,9.0,87,0.01,,,0.14,0.000000,,2013-10-03 02:11:00,
2013-10-02 21:52:00,53.0,50.0,-100.00,ENE,57,3.0,10.0,90,0.01,,,0.15,0.000000,,2013-10-03 02:52:00,
2013-10-02 22:03:00,53.0,50.0,-100.00,ENE,57,3.0,10.0,90,0.01,,,0.15,0.000000,,2013-10-03 03:03:00,
2013-10-02 22:11:00,53.0,50.0,-100.00,ENE,57,3.0,10.0,90,0.01,,,0.15,0.000000,,2013-10-03 03:11:00,
2013-10-02 22:44:00,53.0,50.0,-100.00,ENE,63,5.0,9.0,91,0.02,,,0.17,0.000000,,2013-10-03 03:44:00,
2013-10-02 22:54:00,53.0,50.0,-100.00,ENE,63,5.0,9.0,91,0.02,,,0.17,0.000000,,2013-10-03 03:54:00,
2013-10-02 23:05:00,53.0,50.0,-100.00,ENE,63,5.0,9.0,91,0.02,,,0.17,0.000000,,2013-10-03 04:05:00,
2013-10-02 23:13:00,53.0,50.0,-100.00,ENE,63,5.0,9.0,91,0.02,,,0.17,0.000000,,2013-10-03 04:13:00,
2013-10-02 23:44:00,53.0,50.0,-100.00,ENE,58,4.0,11.0,91,0.02,,,0.19,0.000000,,2013-10-03 04:44:00,
2013-10-02 23:53:00,53.0,50.0,-100.00,ENE,58,4.0,11.0,91,0.02,,,0.19,0.000000,,2013-10-03 04:53:00,